Tracking 27422 objects as of 30-May-2023
HD Live streaming from Space Station
objects crossing your sky now

INTELSAT 901

Track INTELSAT 901 now!
INTELSAT 901 is classified as:


NORAD ID: 26824
Int'l Code: 2001-024A
Perigee: 35,790.4 km
Apogee: 35,797.7 km
Inclination: 0.0 °
Period: 1,436.1 minutes
Semi major axis: 42165 km
RCS: 15.9919 m2 (large)
Launch date: June 9, 2001
Source: International Telecommunications Satellite Organization (ITSO)
Launch site: FRENCH GUIANA (FRGUI)

INTELSAT 901 is a 4.7 ton (with fuel) geosynchronous communications spacecraft providing voice and video services to Europe and the Americas through 44 C-band and 12 Ku-band transponders.
Your satellite tracking list
Your tracking list is empty




NASA's NSSDC Master Catalog

Two Line Element Set (TLE):
1 26824U 01024A   23150.00604966 -.00000186  00000-0  00000+0 0  9996
2 26824   0.0337  91.2839 0000865 345.8151 144.8708  1.00270809 80417
Source of the keplerian elements: AFSPC